TimeMST,TemperatureF,Dew PointF,Humidity,Sea Level PressureIn,VisibilityMPH,Wind Direction,Wind SpeedMPH,Gust SpeedMPH,PrecipitationIn,Events,Conditions,WindDirDegrees,DateUTC
12:53 AM,39.0,28.9,67,29.91,10.0,WSW,17.3,-,N/A,,Clear,250,2012-11-17 07:53:00
1:53 AM,37.0,27.0,67,29.94,10.0,WNW,8.1,-,N/A,,Partly Cloudy,290,2012-11-17 08:53:00
2:53 AM,36.0,27.0,70,29.97,10.0,West,11.5,-,N/A,,Mostly Cloudy,260,2012-11-17 09:53:00
3:53 AM,35.1,26.1,70,29.99,10.0,West,11.5,-,N/A,,Scattered Clouds,270,2012-11-17 10:53:00
4:53 AM,34.0,24.1,67,30.01,10.0,West,10.4,-,N/A,,Clear,270,2012-11-17 11:53:00
5:53 AM,33.1,23.0,66,30.04,10.0,SW,9.2,-,N/A,,Clear,230,2012-11-17 12:53:00
6:53 AM,39.0,21.9,50,30.04,10.0,SW,6.9,-,N/A,,Clear,230,2012-11-17 13:53:00
7:53 AM,39.0,24.1,55,30.06,10.0,WSW,9.2,-,N/A,,Clear,240,2012-11-17 14:53:00
8:53 AM,46.0,24.1,42,30.04,10.0,WSW,9.2,-,N/A,,Clear,240,2012-11-17 15:53:00
9:53 AM,50.0,25.0,38,30.02,10.0,SW,8.1,-,N/A,,Clear,220,2012-11-17 16:53:00
10:53 AM,53.1,23.0,31,30.01,10.0,WSW,4.6,-,N/A,,Clear,240,2012-11-17 17:53:00
11:53 AM,54.0,23.0,30,30.00,10.0,SSW,4.6,-,N/A,,Clear,200,2012-11-17 18:53:00
12:53 PM,55.9,24.1,29,29.97,10.0,Variable,5.8,-,N/A,,Clear,0,2012-11-17 19:53:00
1:53 PM,57.0,24.1,28,29.97,10.0,SSW,6.9,-,N/A,,Clear,210,2012-11-17 20:53:00
2:53 PM,55.9,23.0,28,29.96,10.0,SW,6.9,-,N/A,,Clear,220,2012-11-17 21:53:00
3:53 PM,53.1,25.0,34,29.97,10.0,South,4.6,-,N/A,,Clear,190,2012-11-17 22:53:00
4:53 PM,36.0,24.1,62,30.03,10.0,SSE,6.9,-,N/A,,Clear,160,2012-11-17 23:53:00
5:53 PM,39.0,25.0,57,30.00,10.0,SSE,11.5,-,N/A,,Clear,160,2012-11-18 00:53:00
6:53 PM,37.9,26.1,62,29.97,10.0,South,10.4,-,N/A,,Clear,180,2012-11-18 01:53:00
7:53 PM,41.0,28.9,62,29.95,10.0,South,12.7,-,N/A,,Clear,190,2012-11-18 02:53:00
8:53 PM,43.0,30.0,60,29.92,10.0,SSW,15.0,-,N/A,,Clear,200,2012-11-18 03:53:00
9:53 PM,41.0,32.0,70,29.89,10.0,South,16.1,-,N/A,,Clear,190,2012-11-18 04:53:00
10:53 PM,39.9,32.0,73,29.88,10.0,South,13.8,-,N/A,,Clear,180,2012-11-18 05:53:00
11:53 PM,42.1,33.1,70,29.85,10.0,South,17.3,-,N/A,,Clear,190,2012-11-18 06:53:00